Year,Month,Day,Hour,Minute,Value (Times are PST for temperature in C)
2017,11,13,10,35,8.30
2017,11,13,10,36,8.30
2017,11,13,10,37,8.30
2017,11,13,10,38,8.20
2017,11,13,10,39,8.20
2017,11,13,10,40,8.30
2017,11,13,10,41,8.30
2017,11,13,10,42,8.30
2017,11,13,10,43,8.30
2017,11,13,10,44,8.30
2017,11,13,10,45,8.30
2017,11,13,10,46,8.30
2017,11,13,10,47,8.20
2017,11,13,10,48,8.20
2017,11,13,10,49,8.20
2017,11,13,10,50,8.20
2017,11,13,10,51,8.20
2017,11,13,10,52,8.10
2017,11,13,10,53,8.10
2017,11,13,10,54,8.00
2017,11,13,10,55,7.90
2017,11,13,10,56,7.90
2017,11,13,10,57,7.90
2017,11,13,10,58,7.80
2017,11,13,10,59,7.80
2017,11,13,11,00,7.80
2017,11,13,11,01,7.70
2017,11,13,11,02,7.70
2017,11,13,11,03,7.70
2017,11,13,11,04,7.70
2017,11,13,11,05,7.70
2017,11,13,11,06,7.60
2017,11,13,11,07,7.60
2017,11,13,11,08,7.60
2017,11,13,11,09,7.60
2017,11,13,11,10,7.60
2017,11,13,11,11,7.60
2017,11,13,11,12,7.60
2017,11,13,11,13,7.60
2017,11,13,11,14,7.60
2017,11,13,11,15,7.60
2017,11,13,11,16,7.60
2017,11,13,11,17,7.60
2017,11,13,11,18,7.60
2017,11,13,11,19,7.60
2017,11,13,11,20,7.60
2017,11,13,11,21,7.60
2017,11,13,11,22,7.60
2017,11,13,11,23,7.60
2017,11,13,11,24,7.60
2017,11,13,11,25,7.60
2017,11,13,11,26,7.60
2017,11,13,11,27,7.60
2017,11,13,11,28,7.60
2017,11,13,11,29,7.60
2017,11,13,11,30,7.60
2017,11,13,11,31,7.60
2017,11,13,11,32,7.70
2017,11,13,11,33,7.70
2017,11,13,11,34,7.70
2017,11,13,11,35,7.70
2017,11,13,11,36,7.70
2017,11,13,11,37,7.70
2017,11,13,11,38,7.70
2017,11,13,11,39,7.70
2017,11,13,11,40,7.70
2017,11,13,11,41,7.70
2017,11,13,11,42,7.70
2017,11,13,11,43,7.70
2017,11,13,11,44,7.70
2017,11,13,11,45,7.70
2017,11,13,11,46,7.70
2017,11,13,11,47,7.70
2017,11,13,11,48,7.70
2017,11,13,11,49,7.70
2017,11,13,11,50,7.70
2017,11,13,11,51,7.80
2017,11,13,11,52,7.80
2017,11,13,11,53,7.80
2017,11,13,11,54,7.80
2017,11,13,11,55,7.80
2017,11,13,11,56,7.80
2017,11,13,11,57,7.80
2017,11,13,11,58,7.80
2017,11,13,11,59,7.90
2017,11,13,12,00,7.90
2017,11,13,12,01,7.90
2017,11,13,12,02,7.90
2017,11,13,12,03,7.90
2017,11,13,12,04,7.90
2017,11,13,12,05,7.90
2017,11,13,12,06,8.00
2017,11,13,12,07,8.00
2017,11,13,12,08,8.10
2017,11,13,12,09,8.10
2017,11,13,12,10,8.10
2017,11,13,12,11,8.10
2017,11,13,12,12,8.10
2017,11,13,12,13,8.10
2017,11,13,12,14,8.20
2017,11,13,12,15,8.20
2017,11,13,12,16,8.20
2017,11,13,12,17,8.20
2017,11,13,12,18,8.20
2017,11,13,12,19,8.30
2017,11,13,12,20,8.30
2017,11,13,12,21,8.40
2017,11,13,12,22,8.40
2017,11,13,12,23,8.50
2017,11,13,12,24,8.50
2017,11,13,12,25,8.50
2017,11,13,12,26,8.50
2017,11,13,12,27,8.50
2017,11,13,12,28,8.60
2017,11,13,12,29,8.60
2017,11,13,12,30,8.60
2017,11,13,12,31,8.60
2017,11,13,12,32,8.60
2017,11,13,12,33,8.70
2017,11,13,12,34,8.70
2017,11,13,12,35,8.70
2017,11,13,12,36,8.70
2017,11,13,12,37,8.80
2017,11,13,12,38,8.80
2017,11,13,12,39,8.80
2017,11,13,12,40,8.80
2017,11,13,12,41,8.80
2017,11,13,12,42,8.80
2017,11,13,12,43,8.80
2017,11,13,12,44,8.80
2017,11,13,12,45,8.80
2017,11,13,12,46,8.80
2017,11,13,12,47,8.80
2017,11,13,12,48,8.70
2017,11,13,12,49,8.70
2017,11,13,12,50,8.80
2017,11,13,12,51,8.70
2017,11,13,12,52,8.70
2017,11,13,12,53,8.80
2017,11,13,12,54,8.80
2017,11,13,12,55,8.80
2017,11,13,12,56,8.80
2017,11,13,12,57,8.80
2017,11,13,12,58,8.80
2017,11,13,12,59,8.80
2017,11,13,13,00,8.80
2017,11,13,13,01,8.80
2017,11,13,13,02,8.80
2017,11,13,13,03,8.80
2017,11,13,13,04,8.80
2017,11,13,13,05,8.80
2017,11,13,13,06,8.80
2017,11,13,13,07,8.80
2017,11,13,13,08,8.80
2017,11,13,13,09,8.90
2017,11,13,13,10,8.90
2017,11,13,13,11,8.90
2017,11,13,13,12,8.90
2017,11,13,13,13,8.90
2017,11,13,13,14,8.90
2017,11,13,13,15,9.00
2017,11,13,13,16,9.00
2017,11,13,13,17,9.00
2017,11,13,13,18,9.00
2017,11,13,13,19,9.00
2017,11,13,13,20,9.10
2017,11,13,13,21,9.10
2017,11,13,13,22,9.10
2017,11,13,13,23,9.10
2017,11,13,13,24,9.10
2017,11,13,13,25,9.10
2017,11,13,13,26,9.10
2017,11,13,13,27,9.10
2017,11,13,13,28,9.10
2017,11,13,13,29,9.10
2017,11,13,13,30,9.10
2017,11,13,13,31,9.20
2017,11,13,13,32,9.20
2017,11,13,13,33,9.20
2017,11,13,13,34,9.20
2017,11,13,13,35,9.20
2017,11,13,13,36,9.20
2017,11,13,13,37,9.20
2017,11,13,13,38,9.20
2017,11,13,13,39,9.10
2017,11,13,13,40,9.10
2017,11,13,13,41,9.20
2017,11,13,13,42,9.20
2017,11,13,13,43,9.20
2017,11,13,13,44,9.20
2017,11,13,13,45,9.20
2017,11,13,13,46,9.20
2017,11,13,13,47,9.20
2017,11,13,13,48,9.20
2017,11,13,13,49,9.20
2017,11,13,13,50,9.20
2017,11,13,13,51,9.20
2017,11,13,13,52,9.20
2017,11,13,13,53,9.20
2017,11,13,13,54,9.20
2017,11,13,13,55,9.20
2017,11,13,13,56,9.10
2017,11,13,13,57,9.10
2017,11,13,13,58,9.10
2017,11,13,13,59,9.10
2017,11,13,14,00,9.00
2017,11,13,14,01,9.00
2017,11,13,14,02,9.00
2017,11,13,14,03,8.90
2017,11,13,14,04,8.90
2017,11,13,14,05,8.90
2017,11,13,14,06,8.90
2017,11,13,14,07,8.90
2017,11,13,14,08,8.80
2017,11,13,14,09,8.80
2017,11,13,14,10,8.80
2017,11,13,14,11,8.80
2017,11,13,14,12,8.80
2017,11,13,14,13,8.80
2017,11,13,14,14,8.80
2017,11,13,14,15,8.80
2017,11,13,14,16,8.80
2017,11,13,14,17,8.70
2017,11,13,14,18,8.70
2017,11,13,14,19,8.70
2017,11,13,14,20,8.70
2017,11,13,14,21,8.70
2017,11,13,14,22,8.70
2017,11,13,14,23,8.70
2017,11,13,14,24,8.70
2017,11,13,14,25,8.70
2017,11,13,14,26,8.70
2017,11,13,14,27,8.70
2017,11,13,14,28,8.70
2017,11,13,14,29,8.70
2017,11,13,14,30,8.70
2017,11,13,14,31,8.70
2017,11,13,14,32,8.60
2017,11,13,14,33,8.60
2017,11,13,14,34,8.60
2017,11,13,14,35,8.60
2017,11,13,14,36,8.60
2017,11,13,14,37,8.60
2017,11,13,14,38,8.60
2017,11,13,14,39,8.60
2017,11,13,14,40,8.60
2017,11,13,14,41,8.60
2017,11,13,14,42,8.60
2017,11,13,14,43,8.60
2017,11,13,14,44,8.50
2017,11,13,14,45,8.50
2017,11,13,14,46,8.50
2017,11,13,14,47,8.50
2017,11,13,14,48,8.50
2017,11,13,14,49,8.40
2017,11,13,14,50,8.40
2017,11,13,14,51,8.40
2017,11,13,14,52,8.40
2017,11,13,14,53,8.40
2017,11,13,14,54,8.40
2017,11,13,14,55,8.40
2017,11,13,14,56,8.40
2017,11,13,14,57,8.40
2017,11,13,14,58,8.30
2017,11,13,14,59,8.30
2017,11,13,15,00,8.30
2017,11,13,15,01,8.30
2017,11,13,15,02,8.30
2017,11,13,15,03,8.30
2017,11,13,15,04,8.30
2017,11,13,15,05,8.30
2017,11,13,15,06,8.30
2017,11,13,15,07,8.30
2017,11,13,15,08,8.30
2017,11,13,15,09,8.30
2017,11,13,15,10,8.30
2017,11,13,15,11,8.30
2017,11,13,15,12,8.30
2017,11,13,15,13,8.30
2017,11,13,15,14,8.30
2017,11,13,15,15,8.30
2017,11,13,15,16,8.30
2017,11,13,15,17,8.20
2017,11,13,15,18,8.20
2017,11,13,15,19,8.20
2017,11,13,15,20,8.20
2017,11,13,15,21,8.20
2017,11,13,15,22,8.20
2017,11,13,15,23,8.20
2017,11,13,15,24,8.20
2017,11,13,15,25,8.20
2017,11,13,15,26,8.20
2017,11,13,15,27,8.20
2017,11,13,15,28,8.20
2017,11,13,15,29,8.20
2017,11,13,15,30,8.20
2017,11,13,15,31,8.20
2017,11,13,15,32,8.20
2017,11,13,15,33,8.20
2017,11,13,15,34,8.20
2017,11,13,15,35,8.20
2017,11,13,15,36,8.20
2017,11,13,15,37,8.20
2017,11,13,15,38,8.20
2017,11,13,15,39,8.20
2017,11,13,15,40,8.20
2017,11,13,15,41,8.20
2017,11,13,15,42,8.20
2017,11,13,15,43,8.20
2017,11,13,15,44,8.20
2017,11,13,15,45,8.20
2017,11,13,15,46,8.20
2017,11,13,15,47,8.20
2017,11,13,15,48,8.20
2017,11,13,15,49,8.20
2017,11,13,15,50,8.20
2017,11,13,15,51,8.20
2017,11,13,15,52,8.20
2017,11,13,15,53,8.20
2017,11,13,15,54,8.20
2017,11,13,15,55,8.20
2017,11,13,15,56,8.20
2017,11,13,15,57,8.20
2017,11,13,15,58,8.30
2017,11,13,15,59,8.30
2017,11,13,16,00,8.30
2017,11,13,16,01,8.30
2017,11,13,16,02,8.30
2017,11,13,16,03,8.30
2017,11,13,16,04,8.30
2017,11,13,16,05,8.30
2017,11,13,16,06,8.30
2017,11,13,16,07,8.30
2017,11,13,16,08,8.30
2017,11,13,16,09,8.30
2017,11,13,16,10,8.30
2017,11,13,16,11,8.30
2017,11,13,16,12,8.30
2017,11,13,16,13,8.30
2017,11,13,16,14,8.30
2017,11,13,16,15,8.30
2017,11,13,16,16,8.30
2017,11,13,16,17,8.30
2017,11,13,16,18,8.30
2017,11,13,16,19,8.30
2017,11,13,16,20,8.30
2017,11,13,16,21,8.30
2017,11,13,16,22,8.30
2017,11,13,16,23,8.30
2017,11,13,16,24,8.30
2017,11,13,16,25,8.30
2017,11,13,16,26,8.30
2017,11,13,16,27,8.30
2017,11,13,16,28,8.30
2017,11,13,16,29,8.30
2017,11,13,16,30,8.30
2017,11,13,16,31,8.30
2017,11,13,16,32,8.30
2017,11,13,16,33,8.30
2017,11,13,16,34,8.30
2017,11,13,16,35,8.30
2017,11,13,16,36,8.30
2017,11,13,16,37,8.20
2017,11,13,16,38,8.20
2017,11,13,16,39,8.20
2017,11,13,16,40,8.20
2017,11,13,16,41,8.20
2017,11,13,16,42,8.20
2017,11,13,16,43,8.20
2017,11,13,16,44,8.20
2017,11,13,16,45,8.20
2017,11,13,16,46,8.20
2017,11,13,16,47,8.20
2017,11,13,16,48,8.20
2017,11,13,16,49,8.20
2017,11,13,16,50,8.10
2017,11,13,16,51,8.10
2017,11,13,16,52,8.10
2017,11,13,16,53,8.10
2017,11,13,16,54,8.10
2017,11,13,16,55,8.10
2017,11,13,16,56,8.10
2017,11,13,16,57,8.10
2017,11,13,16,58,8.10
2017,11,13,16,59,8.10
2017,11,13,17,00,8.10
2017,11,13,17,01,8.10
2017,11,13,17,02,8.10
2017,11,13,17,03,8.10
2017,11,13,17,04,8.10
2017,11,13,17,05,8.10
2017,11,13,17,06,8.00
2017,11,13,17,07,8.10
2017,11,13,17,08,8.10
2017,11,13,17,09,8.10
2017,11,13,17,10,8.10
2017,11,13,17,11,8.10
2017,11,13,17,12,8.10
2017,11,13,17,13,8.10
2017,11,13,17,14,8.10
2017,11,13,17,15,8.10
2017,11,13,17,16,8.10
2017,11,13,17,17,8.10
2017,11,13,17,18,8.10
2017,11,13,17,19,8.20
2017,11,13,17,20,8.20
2017,11,13,17,21,8.20
2017,11,13,17,22,8.20
2017,11,13,17,23,8.30
2017,11,13,17,24,8.30
2017,11,13,17,25,8.30
2017,11,13,17,26,8.30
2017,11,13,17,27,8.30
2017,11,13,17,28,8.30
2017,11,13,17,29,8.40
2017,11,13,17,30,8.40
2017,11,13,17,31,8.40
2017,11,13,17,32,8.40
2017,11,13,17,33,8.50
2017,11,13,17,34,8.50
2017,11,13,17,35,8.60
2017,11,13,17,36,8.60
2017,11,13,17,37,8.60
2017,11,13,17,38,8.60
2017,11,13,17,39,8.70
2017,11,13,17,40,8.70
2017,11,13,17,41,8.80
2017,11,13,17,42,8.80
2017,11,13,17,43,8.80
2017,11,13,17,44,8.80
2017,11,13,17,45,8.80
2017,11,13,17,46,8.80
2017,11,13,17,47,8.90
2017,11,13,17,48,8.90
2017,11,13,17,49,8.90
2017,11,13,17,50,8.90
2017,11,13,17,51,9.00
2017,11,13,17,52,9.00
2017,11,13,17,53,9.00
2017,11,13,17,54,9.00
2017,11,13,17,55,9.00
2017,11,13,17,56,9.10
2017,11,13,17,57,9.10
2017,11,13,17,58,9.10
2017,11,13,17,59,9.10
2017,11,13,18,00,9.20
2017,11,13,18,01,9.20
2017,11,13,18,02,9.30
2017,11,13,18,03,9.30
2017,11,13,18,04,9.30
2017,11,13,18,05,9.30
2017,11,13,18,06,9.40
2017,11,13,18,07,9.40
2017,11,13,18,08,9.50
2017,11,13,18,09,9.50
2017,11,13,18,10,9.50
2017,11,13,18,11,9.60
2017,11,13,18,12,9.50
2017,11,13,18,13,9.50
2017,11,13,18,14,9.50
2017,11,13,18,15,9.40
2017,11,13,18,16,9.40
2017,11,13,18,17,9.40
2017,11,13,18,18,9.40
2017,11,13,18,19,9.40
2017,11,13,18,20,9.40
2017,11,13,18,21,9.40
2017,11,13,18,22,9.50
2017,11,13,18,23,9.50
2017,11,13,18,24,9.50
2017,11,13,18,25,9.60
2017,11,13,18,26,9.60
2017,11,13,18,27,9.60
2017,11,13,18,28,9.60
2017,11,13,18,29,9.60
2017,11,13,18,30,9.60
2017,11,13,18,31,9.60
2017,11,13,18,32,9.60
2017,11,13,18,33,9.70
2017,11,13,18,34,9.70
2017,11,13,18,35,9.70
2017,11,13,18,36,9.80
2017,11,13,18,37,9.80
2017,11,13,18,38,9.80
2017,11,13,18,39,9.80
2017,11,13,18,40,9.80
2017,11,13,18,41,9.80
2017,11,13,18,42,9.80
2017,11,13,18,43,9.80
2017,11,13,18,44,9.80
2017,11,13,18,45,9.80
2017,11,13,18,46,9.80
2017,11,13,18,47,9.80
2017,11,13,18,48,9.80
2017,11,13,18,49,9.70
2017,11,13,18,50,9.70
2017,11,13,18,51,9.60
2017,11,13,18,52,9.60
2017,11,13,18,53,9.60
2017,11,13,18,54,9.50
2017,11,13,18,55,9.50
2017,11,13,18,56,9.40
2017,11,13,18,57,9.40
2017,11,13,18,58,9.40
2017,11,13,18,59,9.40
2017,11,13,19,00,9.40
2017,11,13,19,01,9.40
2017,11,13,19,02,9.50
2017,11,13,19,03,9.50
2017,11,13,19,04,9.50
2017,11,13,19,05,9.50
2017,11,13,19,06,9.50
2017,11,13,19,07,9.50
2017,11,13,19,08,9.50
2017,11,13,19,09,9.50
2017,11,13,19,10,9.60
2017,11,13,19,11,9.60
2017,11,13,19,12,9.60
2017,11,13,19,13,9.60
2017,11,13,19,14,9.60
2017,11,13,19,15,9.60
2017,11,13,19,16,9.60
2017,11,13,19,17,9.60
2017,11,13,19,18,9.60
2017,11,13,19,19,9.60
2017,11,13,19,20,9.50
2017,11,13,19,21,9.50
2017,11,13,19,22,9.50
2017,11,13,19,23,9.50
2017,11,13,19,24,9.50
2017,11,13,19,25,9.50
2017,11,13,19,26,9.50
2017,11,13,19,27,9.50
2017,11,13,19,28,9.50
2017,11,13,19,29,9.50
2017,11,13,19,30,9.50
2017,11,13,19,31,9.50
2017,11,13,19,32,9.50
2017,11,13,19,33,9.50
2017,11,13,19,34,9.50
2017,11,13,19,35,9.50
2017,11,13,19,36,9.50
2017,11,13,19,37,9.50
2017,11,13,19,38,9.50
2017,11,13,19,39,9.50
2017,11,13,19,40,9.50
2017,11,13,19,41,9.50
2017,11,13,19,42,9.50
2017,11,13,19,43,9.50
2017,11,13,19,44,9.50
2017,11,13,19,45,9.50
2017,11,13,19,46,9.60
2017,11,13,19,47,9.60
2017,11,13,19,48,9.60
2017,11,13,19,49,9.50
2017,11,13,19,50,9.50
2017,11,13,19,51,9.50
2017,11,13,19,52,9.40
2017,11,13,19,53,9.40
2017,11,13,19,54,9.40
2017,11,13,19,55,9.40
2017,11,13,19,56,9.40
2017,11,13,19,57,9.40
2017,11,13,19,58,9.40
2017,11,13,19,59,9.40
2017,11,13,20,00,9.40
2017,11,13,20,01,9.40
2017,11,13,20,02,9.40
2017,11,13,20,03,9.40
2017,11,13,20,04,9.40
2017,11,13,20,05,9.40
2017,11,13,20,06,9.50
2017,11,13,20,07,9.40
2017,11,13,20,08,9.40
2017,11,13,20,09,9.50
2017,11,13,20,10,9.50
2017,11,13,20,11,9.50
2017,11,13,20,12,9.50
2017,11,13,20,13,9.40
2017,11,13,20,14,9.40
2017,11,13,20,15,9.40
2017,11,13,20,16,9.40
2017,11,13,20,17,9.40
2017,11,13,20,18,9.40
2017,11,13,20,19,9.40
2017,11,13,20,20,9.40
2017,11,13,20,21,9.40
2017,11,13,20,22,9.40
2017,11,13,20,23,9.40
2017,11,13,20,24,9.40
2017,11,13,20,25,9.40
2017,11,13,20,26,9.40
2017,11,13,20,27,9.40
2017,11,13,20,28,9.40
2017,11,13,20,29,9.40
2017,11,13,20,30,9.40
2017,11,13,20,31,9.40
2017,11,13,20,32,9.40
2017,11,13,20,33,9.40
2017,11,13,20,34,9.50
2017,11,13,20,35,9.50
2017,11,13,20,36,9.60
2017,11,13,20,37,9.60
2017,11,13,20,38,9.60
2017,11,13,20,39,9.60
2017,11,13,20,40,9.60
2017,11,13,20,41,9.60
2017,11,13,20,42,9.60
2017,11,13,20,43,9.60
2017,11,13,20,44,9.60
2017,11,13,20,45,9.60
2017,11,13,20,46,9.60
2017,11,13,20,47,9.60
2017,11,13,20,48,9.60
2017,11,13,20,49,9.50
2017,11,13,20,50,9.50
2017,11,13,20,51,9.50
2017,11,13,20,52,9.60
2017,11,13,20,53,9.50
2017,11,13,20,54,9.50
2017,11,13,20,55,9.50
2017,11,13,20,56,9.60
2017,11,13,20,57,9.60
2017,11,13,20,58,9.50
2017,11,13,20,59,9.50
2017,11,13,21,00,9.50
2017,11,13,21,01,9.50
2017,11,13,21,02,9.40
2017,11,13,21,03,9.50
2017,11,13,21,04,9.50
2017,11,13,21,05,9.50
2017,11,13,21,06,9.50
2017,11,13,21,07,9.50
2017,11,13,21,08,9.50
2017,11,13,21,09,9.50
2017,11,13,21,10,9.50
2017,11,13,21,11,9.50
2017,11,13,21,12,9.50
2017,11,13,21,13,9.50
2017,11,13,21,14,9.50
2017,11,13,21,15,9.50
2017,11,13,21,16,9.40
2017,11,13,21,17,9.40
2017,11,13,21,18,9.40
2017,11,13,21,19,9.40
2017,11,13,21,20,9.40
2017,11,13,21,21,9.40
2017,11,13,21,22,9.40
2017,11,13,21,23,9.40
2017,11,13,21,24,9.30
2017,11,13,21,25,9.30
2017,11,13,21,26,9.30
2017,11,13,21,27,9.30
2017,11,13,21,28,9.30
2017,11,13,21,29,9.30
2017,11,13,21,30,9.30
2017,11,13,21,31,9.30
2017,11,13,21,32,9.30
2017,11,13,21,33,9.30
2017,11,13,21,34,9.30
2017,11,13,21,35,9.30
2017,11,13,21,36,9.30
2017,11,13,21,37,9.30
2017,11,13,21,38,9.30
2017,11,13,21,39,9.30
2017,11,13,21,40,9.30
2017,11,13,21,41,9.30
2017,11,13,21,42,9.30
2017,11,13,21,43,9.30
2017,11,13,21,44,9.30
2017,11,13,21,45,9.30
2017,11,13,21,46,9.30
2017,11,13,21,47,9.30
2017,11,13,21,48,9.30
2017,11,13,21,49,9.30
2017,11,13,21,50,9.30
2017,11,13,21,51,9.30
2017,11,13,21,52,9.30
2017,11,13,21,53,9.30
2017,11,13,21,54,9.30
2017,11,13,21,55,9.30
2017,11,13,21,56,9.30
2017,11,13,21,57,9.30
2017,11,13,21,58,9.30
2017,11,13,21,59,9.30
2017,11,13,22,00,9.30
2017,11,13,22,01,9.30
2017,11,13,22,02,9.30
2017,11,13,22,03,9.30
2017,11,13,22,04,9.30
2017,11,13,22,05,9.30
2017,11,13,22,06,9.30
2017,11,13,22,07,9.30
2017,11,13,22,08,9.30
2017,11,13,22,09,9.30
2017,11,13,22,10,9.20
2017,11,13,22,11,9.20
2017,11,13,22,12,9.20
2017,11,13,22,13,9.20
2017,11,13,22,14,9.20
2017,11,13,22,15,9.20
2017,11,13,22,16,9.20
2017,11,13,22,17,9.20
2017,11,13,22,18,9.20
2017,11,13,22,19,9.20
2017,11,13,22,20,9.20
2017,11,13,22,21,9.20
2017,11,13,22,22,9.20
2017,11,13,22,23,9.20
2017,11,13,22,24,9.20
2017,11,13,22,25,9.20
2017,11,13,22,26,9.20
2017,11,13,22,27,9.20
2017,11,13,22,28,9.20
2017,11,13,22,29,9.20
2017,11,13,22,30,9.20
2017,11,13,22,31,9.20
2017,11,13,22,32,9.20
2017,11,13,22,33,9.20
2017,11,13,22,34,9.20
2017,11,13,22,35,9.20
2017,11,13,22,36,9.20
2017,11,13,22,37,9.10
2017,11,13,22,38,9.10
2017,11,13,22,39,9.10
2017,11,13,22,40,9.10
2017,11,13,22,41,9.20
2017,11,13,22,42,9.20
2017,11,13,22,43,9.10
2017,11,13,22,44,9.20
2017,11,13,22,45,9.10
2017,11,13,22,46,9.10
2017,11,13,22,47,9.10
2017,11,13,22,48,9.20
2017,11,13,22,49,9.20
2017,11,13,22,50,9.20
2017,11,13,22,51,9.20
2017,11,13,22,52,9.20
2017,11,13,22,53,9.20
2017,11,13,22,54,9.20
2017,11,13,22,55,9.20
2017,11,13,22,56,9.20
2017,11,13,22,57,9.20
2017,11,13,22,58,9.20
2017,11,13,22,59,9.20
2017,11,13,23,00,9.20
2017,11,13,23,01,9.20
2017,11,13,23,02,9.20
2017,11,13,23,03,9.20
2017,11,13,23,04,9.20
2017,11,13,23,05,9.20
2017,11,13,23,06,9.10
2017,11,13,23,07,9.20
2017,11,13,23,08,9.10
2017,11,13,23,09,9.10
2017,11,13,23,10,9.10
2017,11,13,23,11,9.10
2017,11,13,23,12,9.10
2017,11,13,23,13,9.10
2017,11,13,23,14,9.10
2017,11,13,23,15,9.00
2017,11,13,23,16,9.00
2017,11,13,23,17,9.00
2017,11,13,23,18,8.90
2017,11,13,23,19,8.90
2017,11,13,23,20,8.90
2017,11,13,23,21,8.80
2017,11,13,23,22,8.80
2017,11,13,23,23,8.80
2017,11,13,23,24,8.80
2017,11,13,23,25,8.80
2017,11,13,23,26,8.80
2017,11,13,23,27,8.80
2017,11,13,23,28,8.80
2017,11,13,23,29,8.80
2017,11,13,23,30,8.90
2017,11,13,23,31,8.90
2017,11,13,23,32,8.90
2017,11,13,23,33,8.90
2017,11,13,23,34,8.90
2017,11,13,23,35,8.90
2017,11,13,23,36,8.90
2017,11,13,23,37,8.90
2017,11,13,23,38,8.90
2017,11,13,23,39,8.90
2017,11,13,23,40,8.90
2017,11,13,23,41,9.00
2017,11,13,23,42,9.00
2017,11,13,23,43,9.00
2017,11,13,23,44,9.00
2017,11,13,23,45,9.00
2017,11,13,23,46,9.00
2017,11,13,23,47,9.00
2017,11,13,23,48,9.00
2017,11,13,23,49,9.00
2017,11,13,23,50,9.10
2017,11,13,23,51,9.00
2017,11,13,23,52,9.10
2017,11,13,23,53,9.00
2017,11,13,23,54,9.00
2017,11,13,23,55,9.00
2017,11,13,23,56,9.00
2017,11,13,23,57,9.00
2017,11,13,23,58,9.00
2017,11,13,23,59,9.00
